Volver al catálogo

STARLINK-34398

ActivoComunicacionesVLEO
NORAD 64445·PAYLOAD·🇺🇸 United States

Lanzado Jun 18, 2025 desde Cape Canaveral Space Force Station

Loading…

Próximos Pases (próximas 24 horas)

TLE

ActualizadoSource: CelesTrak SupGP

Época: Sep 15, 2026, 03:50 UTC

1 64445C 25130H   26258.16020833 -.00007315  00000+0 -21605-3 0  2582
2 64445  53.1565 287.0112 0001085 107.8277 209.1613 15.34406401    18

Sigue STARLINK-34398 en tiempo real con AllMySat

Download on the App Store